This is the latest recevied weather packets stored in our database for station/object N0NB. If no packets are shown the sender has not sent any weather packets the latest 10 day(s).
| Time | Temp. | Humidity | Pressure | Rain* | Wind** | Luminosity | Snow |
|---|---|---|---|---|---|---|---|
| 1787880017 | 22.22° C | 86% | 1016.6 hPa | 0 mm | - | 0 W/m² | - |
| 1787879417 | 22.78° C | 84% | 1016.7 hPa | 0 mm | - | 0 W/m² | - |
| 1787878817 | 23.33° C | 82% | 1016.6 hPa | 0 mm | - | 2 W/m² | - |
| 1787878217 | 23.89° C | 79% | 1016.5 hPa | 0 mm | - | 11 W/m² | - |
| 1787877617 | 25° C | 77% | 1016.6 hPa | 0 mm | - | 23 W/m² | - |
| 1787877017 | 25.56° C | 77% | 1016.8 hPa | 0 mm | - | 36 W/m² | - |
| 1787876417 | 26.11° C | 71% | 1016.9 hPa | 0 mm | - | 46 W/m² | - |
| 1787875817 | 26.67° C | 70% | 1017.1 hPa | 0 mm | - | 46 W/m² | - |
| 1787875217 | 27.22° C | 65% | 1017.2 hPa | 0 mm | - | 55 W/m² | - |
| 1787874617 | 27.78° C | 64% | 1017.3 hPa | 0 mm | - | 121 W/m² | - |
| 1787874017 | 27.78° C | 59% | 1017.2 hPa | 0 mm | - | 149 W/m² | - |
| 1787873417 | 28.33° C | 57% | 1017.1 hPa | 0 mm | - | 205 W/m² | - |
| 1787872817 | 28.33° C | 56% | 1017.2 hPa | 0 mm | - | 258 W/m² | - |
| 1787872217 | 28.33° C | 55% | 1017.5 hPa | 0 mm | - | 291 W/m² | - |
| 1787871617 | 28.89° C | 57% | 1017.6 hPa | 0 mm | - | 318 W/m² | - |
| 1787871017 | 28.89° C | 55% | 1017.6 hPa | 0 mm | - | 350 W/m² | - |
| 1787870416 | 28.89° C | 53% | 1017.5 hPa | 0 mm | - | 381 W/m² | - |
| 1787869816 | 28.89° C | 56% | 1017.4 hPa | 0 mm | - | 411 W/m² | - |
| 1787869216 | 29.44° C | 52% | 1017.7 hPa | 0 mm | - | 441 W/m² | - |
| 1787868616 | 29.44° C | 51% | 1017.8 hPa | 0 mm | - | 468 W/m² | - |
| 1787868016 | 28.89° C | 52% | 1017.8 hPa | 0 mm | - | 494 W/m² | - |
| 1787867416 | 28.89° C | 50% | 1018 hPa | 0 mm | - | 520 W/m² | - |
| 1787866816 | 29.44° C | 53% | 1018.1 hPa | 0 mm | - | 544 W/m² | - |
| 1787866216 | 29.44° C | 52% | 1018.1 hPa | 0 mm | - | 572 W/m² | - |
| 1787865616 | 29.44° C | 48% | 1018.2 hPa | 0 mm | - | 598 W/m² | - |
* Rain latest hour (hover to see other rain measurements)
** Current wind speed in m/s (hover to see current wind gust speed)